Location: Enikep?du
(16.5133°N, 80.7066°E)
Time: 19:32:23
(UTC+00:00)

Cosmos 2082 Rocket - Pass Details

Date: 15 May 2026
Orbit: 832 x 852 km, 71.0° (Epoch: 6 June)

Event Time Altitude Azimuth Distance (km) Brightness Sun altitude
Rises 13:39:26 0° 191° (S) 3,400 5.2 -9.5°
Reaches altitude 10° 13:41:53 10° 189° (S) 2,468 4.5 -10.0°
Maximum altitude 13:47:32 72° 106° (ESE) 891 2.1 -11.3°
Drops below altitude 10° 13:53:12 10° 22° (NNE) 2,475 4.7 -12.5°
Sets 13:55:39 0° 20° (NNE) 3,411 5.4 -13.0°
